CW2551 Weather Reports


Display with metric or nautical units.
time (UTC)temp
F
wind
direction
speed
MPH
gust
MPH
rain 1hr
in
rain 24hr
in
rain mn
in
humidity
%
barometer
mb
20260508041605 71 343 0.0 0.0 0.00 0.00 0.00 49 1014.2
20260508041104 71 344 0.0 0.0 0.00 0.00 0.00 51 1014.2
20260508040605 71 345 0.0 0.0 0.00 0.00 0.00 50 1014.0
20260508040022 72 345 0.0 0.0 0.00 0.00 0.00 48 1013.9
20260508035604 72 345 0.0 0.0 0.00 0.00 0.00 48 1013.9
20260508035104 73 350 0.0 0.0 0.00 0.00 0.00 47 1013.7
20260508035020 73 349 0.0 3.0 0.00 0.00 0.00 46 1013.5
20260508034605 73 349 0.0 3.0 0.00 0.00 0.00 46 1013.5
20260508034103 73 5 1.0 3.0 0.00 0.00 0.00 45 1013.5
20260508034021 73 5 1.0 3.0 0.00 0.00 0.00 43 1013.3
20260508033604 73 5 1.0 3.0 0.00 0.00 0.00 43 1013.3
20260508033103 73 252 0.0 0.0 0.00 0.00 0.00 39 1013.3
20260508033021 73 250 0.0 0.0 0.00 0.00 0.00 38 1013.3
20260508032604 73 250 0.0 0.0 0.00 0.00 0.00 38 1013.3
20260508032104 74 250 0.0 0.0 0.00 0.00 0.00 37 1013.1
20260508032021 74 249 0.0 0.0 0.00 0.00 0.00 39 1013.1
20260508031104 75 249 0.0 0.0 0.00 0.00 0.00 38 1013.0
20260508031021 76 249 0.0 0.0 0.00 0.00 0.00 37 1012.8
20260508030604 76 249 0.0 0.0 0.00 0.00 0.00 37 1012.8
20260508030104 76 249 0.0 3.0 0.00 0.00 0.00 34 1012.8
20260508025604 76 242 0.0 2.0 0.00 0.00 0.00 34 1012.7
20260508025106 77 259 1.0 6.0 0.00 0.00 0.00 34 1012.6
20260508025021 77 239 0.0 0.0 0.00 0.00 0.00 34 1012.5
20260508024604 77 239 0.0 0.0 0.00 0.00 0.00 34 1012.5
20260508024105 78 244 0.0 2.0 0.00 0.00 0.00 35 1012.5
20260508024020 78 251 0.0 0.0 0.00 0.00 0.00 34 1012.4
20260508023604 78 251 0.0 0.0 0.00 0.00 0.00 34 1012.4
20260508023022 79 214 0.0 2.0 0.00 0.00 0.00 36 1012.5
20260508022606 79 214 0.0 2.0 0.00 0.00 0.00 36 1012.5
20260508022104 79 219 0.0 3.0 0.00 0.00 0.00 35 1012.4
20260508022021 80 239 0.0 3.0 0.00 0.00 0.00 36 1012.4
20260508021605 80 239 0.0 3.0 0.00 0.00 0.00 36 1012.4
20260508021104 80 300 1.0 7.0 0.00 0.00 0.00 34 1012.3
20260508021021 80 240 0.0 2.0 0.00 0.00 0.00 35 1012.4
20260508020605 80 240 0.0 2.0 0.00 0.00 0.00 35 1012.4
20260508020023 81 320 0.0 3.0 0.00 0.00 0.00 33 1012.1
20260508015606 81 320 0.0 3.0 0.00 0.00 0.00 33 1012.1
20260508015103 81 311 2.0 9.0 0.00 0.00 0.00 32 1012.2
20260508014603 81 1 3.0 6.0 0.00 0.00 0.00 33 1012.2
20260508014021 81 3 2.0 8.0 0.00 0.00 0.00 32 1012.3
20260508013604 81 3 2.0 8.0 0.00 0.00 0.00 32 1012.3
20260508013106 82 343 3.0 9.0 0.00 0.00 0.00 32 1012.3
20260508012604 82 358 4.0 8.0 0.00 0.00 0.00 32 1012.4
20260508012106 82 357 3.0 9.0 0.00 0.00 0.00 31 1012.4
20260508011604 82 338 3.0 8.0 0.00 0.00 0.00 31 1012.5
20260508011105 82 337 3.0 8.0 0.00 0.00 0.00 32 1012.6
20260508011021 83 359 5.0 10.0 0.00 0.00 0.00 31 1012.7
20260508010106 83 338 3.0 12.0 0.00 0.00 0.00 31 1012.7
20260508005606 83 339 5.0 12.0 0.00 0.00 0.00 30 1012.7
20260508005104 83 0 5.0 12.0 0.00 0.00 0.00 31 1012.8
20260508005020 83 341 3.0 10.0 0.00 0.00 0.00 31 1012.8
20260508004604 83 341 3.0 10.0 0.00 0.00 0.00 31 1012.8
20260508004103 84 346 5.0 9.0 0.00 0.00 0.00 31 1012.7
20260508004022 84 328 4.0 10.0 0.00 0.00 0.00 30 1012.8
20260508003604 84 328 4.0 10.0 0.00 0.00 0.00 30 1012.8
20260508003105 84 352 5.0 13.0 0.00 0.00 0.00 30 1012.7
20260508002604 84 342 5.0 10.0 0.00 0.00 0.00 29 1012.8
20260508002103 84 357 5.0 12.0 0.00 0.00 0.00 29 1012.7
20260508002021 84 345 7.0 12.0 0.00 0.00 0.00 29 1012.8
20260508001605 84 345 7.0 12.0 0.00 0.00 0.00 29 1012.8
20260508001104 84 2 3.0 13.0 0.00 0.00 0.00 28 1012.8
20260508000604 84 5 6.0 13.0 0.00 0.00 0.00 28 1013.0
20260508000104 84 357 3.0 12.0 0.00 0.00 0.00 27 1012.9
20260508000023 84 326 3.0 12.0 0.00 0.00 0.00 27 1012.9
20260507235604 84 326 3.0 12.0 0.00 0.00 0.00 27 1012.9
20260507235104 84 352 3.0 10.0 0.00 0.00 0.00 27 1012.9
20260507235022 84 332 1.0 8.0 0.00 0.00 0.00 26 1013.0
20260507234604 84 332 1.0 8.0 0.00 0.00 0.00 26 1013.0
20260507234021 84 13 2.0 9.0 0.00 0.00 0.00 25 1013.0
20260507233604 84 13 2.0 9.0 0.00 0.00 0.00 25 1013.0
20260507233104 84 348 5.0 12.0 0.00 0.00 0.00 24 1013.0
20260507233022 85 349 5.0 10.0 0.00 0.00 0.00 24 1013.0
20260507232604 85 349 5.0 10.0 0.00 0.00 0.00 24 1013.0
20260507232104 85 349 2.0 10.0 0.00 0.00 0.00 24 1013.0
20260507232023 85 355 7.0 14.0 0.00 0.00 0.00 23 1013.1
20260507231604 85 355 7.0 14.0 0.00 0.00 0.00 23 1013.1
20260507231104 85 34 3.0 10.0 0.00 0.00 0.00 24 1013.1
20260507231021 85 312 0.0 8.0 0.00 0.00 0.00 24 1013.2
20260507230604 85 312 0.0 8.0 0.00 0.00 0.00 24 1013.2
20260507230105 85 355 1.0 6.0 0.00 0.00 0.00 24 1013.3
20260507230022 85 355 5.0 14.0 0.00 0.00 0.00 24 1013.4
20260507225103 85 343 4.0 8.0 0.00 0.00 0.00 26 1013.4
20260507225021 84 242 0.0 3.0 0.00 0.00 0.00 28 1013.5
20260507224604 84 242 0.0 3.0 0.00 0.00 0.00 28 1013.5
20260507224021 84 305 2.0 6.0 0.00 0.00 0.00 28 1013.5
20260507222604 84 9 5.0 9.0 0.00 0.00 0.00 31 1013.7
20260507222105 83 333 1.0 7.0 0.00 0.00 0.00 33 1013.7
20260507222021 83 271 1.0 3.0 0.00 0.00 0.00 31 1013.8
20260507221604 83 271 1.0 3.0 0.00 0.00 0.00 31 1013.8
20260507221020 84 351 3.0 8.0 0.00 0.00 0.00 33 1013.9
20260507220604 84 351 3.0 8.0 0.00 0.00 0.00 33 1013.9
20260507220104 83 304 1.0 3.0 0.00 0.00 0.00 35 1014.0
20260507220025 83 282 0.0 5.0 0.00 0.00 0.00 34 1014.1
20260507215605 83 282 0.0 5.0 0.00 0.00 0.00 34 1014.1
20260507215106 84 262 1.0 6.0 0.00 0.00 0.00 35 1014.2
20260507215020 83 310 1.0 5.0 0.00 0.00 0.00 38 1014.3
20260507214604 83 310 1.0 5.0 0.00 0.00 0.00 38 1014.3
20260507214106 83 306 2.0 8.0 0.00 0.00 0.00 36 1014.4
20260507213604 83 342 0.0 5.0 0.00 0.00 0.00 36 1014.4
20260507213105 83 312 1.0 3.0 0.00 0.00 0.00 40 1014.4
20260507213023 83 282 1.0 3.0 0.00 0.00 0.00 40 1014.4
20260507212604 83 282 1.0 3.0 0.00 0.00 0.00 40 1014.4
20260507212106 82 74 0.0 3.0 0.00 0.00 0.00 37 1014.4
20260507212021 83 48 2.0 8.0 0.00 0.00 0.00 35 1014.5
20260507211604 83 48 2.0 8.0 0.00 0.00 0.00 35 1014.5
20260507211104 82 22 4.0 9.0 0.00 0.00 0.00 35 1014.4
20260507210604 82 27 1.0 3.0 0.00 0.00 0.00 38 1014.5
20260507210104 81 19 0.0 2.0 0.00 0.00 0.00 35 1014.6
20260507210023 82 19 3.0 7.0 0.00 0.00 0.00 34 1014.7
20260507205604 82 19 3.0 7.0 0.00 0.00 0.00 34 1014.7
20260507205020 81 359 0.0 3.0 0.00 0.00 0.00 40 1014.7
20260507204604 81 359 0.0 3.0 0.00 0.00 0.00 40 1014.7
20260507204104 82 0 1.0 3.0 0.00 0.00 0.00 36 1014.9
20260507204021 81 68 3.0 5.0 0.00 0.00 0.00 35 1014.9
20260507203606 81 68 3.0 5.0 0.00 0.00 0.00 35 1014.9
20260507203104 79 1 2.0 5.0 0.00 0.00 0.00 46 1014.9
20260507203022 79 317 1.0 3.0 0.00 0.00 0.00 39 1015.0
20260507202604 79 317 1.0 3.0 0.00 0.00 0.00 39 1015.0
20260507202104 79 335 1.0 6.0 0.00 0.00 0.00 41 1015.0
20260507202025 78 331 1.0 5.0 0.00 0.00 0.00 44 1015.1
20260507201604 78 331 1.0 5.0 0.00 0.00 0.00 44 1015.1
20260507201105 79 227 1.0 5.0 0.00 0.00 0.00 42 1015.1
20260507201021 79 346 1.0 5.0 0.00 0.00 0.00 40 1015.3
20260507200604 79 346 1.0 5.0 0.00 0.00 0.00 40 1015.3
20260507200023 77 236 0.0 2.0 0.00 0.00 0.00 45 1015.6
20260507195604 77 236 0.0 2.0 0.00 0.00 0.00 45 1015.6
20260507195020 76 242 1.0 3.0 0.00 0.00 0.00 47 1015.7
20260507194604 76 242 1.0 3.0 0.00 0.00 0.00 47 1015.7
20260507194104 77 23 1.0 3.0 0.00 0.00 0.00 46 1015.7
20260507193604 77 33 1.0 3.0 0.00 0.00 0.00 47 1015.9
20260507193104 77 33 3.0 5.0 0.00 0.00 0.00 45 1015.9
20260507192604 76 349 1.0 3.0 0.00 0.00 0.00 50 1016.0
20260507192105 75 315 1.0 3.0 0.00 0.00 0.00 49 1016.0
20260507192021 75 5 1.0 2.0 0.00 0.00 0.00 48 1016.0
20260507191604 75 5 1.0 2.0 0.00 0.00 0.00 48 1016.0
20260507191104 74 355 0.0 0.0 0.00 0.00 0.00 49 1016.2
20260507191021 73 355 0.0 2.0 0.00 0.00 0.00 51 1016.2
20260507190605 73 355 0.0 2.0 0.00 0.00 0.00 51 1016.2
20260507185603 74 5 1.0 3.0 0.00 0.00 0.00 50 1016.3
20260507185020 72 316 1.0 3.0 0.00 0.00 0.00 52 1016.4
20260507184604 72 316 1.0 3.0 0.00 0.00 0.00 52 1016.4
20260507184103 72 331 0.0 0.0 0.00 0.00 0.00 56 1016.5
20260507184021 72 331 0.0 3.0 0.00 0.00 0.00 53 1016.4
20260507183604 72 331 0.0 3.0 0.00 0.00 0.00 53 1016.4
20260507183104 71 347 2.0 5.0 0.00 0.00 0.00 54 1016.5
20260507183024 70 259 1.0 3.0 0.00 0.00 0.00 55 1016.5
20260507182604 70 259 1.0 3.0 0.00 0.00 0.00 55 1016.5
20260507182104 71 258 1.0 3.0 0.00 0.00 0.00 52 1016.5
20260507182022 70 245 2.0 3.0 0.00 0.00 0.00 57 1016.6
20260507181603 70 245 2.0 3.0 0.00 0.00 0.00 57 1016.6
20260507181106 69 228 0.0 3.0 0.00 0.00 0.00 60 1016.7
20260507181021 70 340 2.0 3.0 0.00 0.00 0.00 55 1016.7
20260507180604 70 340 2.0 3.0 0.00 0.00 0.00 55 1016.7
20260507180105 69 351 1.0 3.0 0.00 0.00 0.00 55 1016.7
20260507180022 68 355 0.0 1.0 0.00 0.00 0.00 61 1016.7
20260507175604 68 355 0.0 1.0 0.00 0.00 0.00 61 1016.7
20260507175103 69 356 1.0 3.0 0.00 0.00 0.00 57 1016.8
20260507175022 68 355 1.0 3.0 0.00 0.00 0.00 58 1016.7
20260507174603 68 355 1.0 3.0 0.00 0.00 0.00 58 1016.7
20260507174020 68 6 0.0 2.0 0.00 0.00 0.00 59 1016.8
20260507173103 69 7 2.0 3.0 0.00 0.00 0.00 57 1016.8
20260507173025 69 348 2.0 5.0 0.00 0.00 0.00 58 1016.9
20260507172604 69 348 2.0 5.0 0.00 0.00 0.00 58 1016.9
20260507172104 68 308 1.0 3.0 0.00 0.00 0.00 58 1017.1
20260507171604 68 286 1.0 3.0 0.00 0.00 0.00 60 1017.1
20260507171104 68 319 0.0 2.0 0.00 0.00 0.00 62 1017.1
20260507171020 67 323 0.0 3.0 0.00 0.00 0.00 60 1017.1
20260507170604 67 323 0.0 3.0 0.00 0.00 0.00 60 1017.1
20260507170104 67 323 0.0 3.0 0.00 0.00 0.00 61 1017.3
20260507170023 66 293 1.0 3.0 0.00 0.00 0.00 61 1017.3
20260507165104 66 286 0.0 0.0 0.00 0.00 0.00 63 1017.3
20260507165023 66 294 0.0 0.0 0.00 0.00 0.00 62 1017.3
20260507164604 66 294 0.0 0.0 0.00 0.00 0.00 62 1017.3
20260507164020 65 338 0.0 0.0 0.00 0.00 0.00 64 1017.4
20260507163605 65 338 0.0 0.0 0.00 0.00 0.00 64 1017.4
20260507162103 64 296 0.0 0.0 0.00 0.00 0.00 67 1017.5
20260507162020 63 296 0.0 0.0 0.00 0.00 0.00 67 1017.4
20260507161104 63 296 0.0 0.0 0.00 0.00 0.00 67 1017.5
20260507161021 62 296 0.0 0.0 0.00 0.00 0.00 67 1017.5
20260507160106 62 292 0.0 0.0 0.00 0.00 0.00 68 1017.5
20260507160021 62 317 0.0 0.0 0.00 0.00 0.00 68 1017.6
20260507155103 61 314 0.0 0.0 0.00 0.00 0.00 70 1017.6
20260507155021 61 307 0.0 0.0 0.00 0.00 0.00 70 1017.7
20260507154105 61 319 0.0 3.0 0.00 0.00 0.00 71 1017.7
20260507153604 60 320 1.0 3.0 0.00 0.00 0.00 70 1017.7
20260507153105 60 297 1.0 2.0 0.00 0.00 0.00 73 1017.7
20260507153021 60 286 0.0 0.0 0.00 0.00 0.00 74 1017.8
20260507152104 59 287 0.0 0.0 0.00 0.00 0.00 75 1017.7
20260507152020 58 288 0.0 0.0 0.00 0.00 0.00 77 1017.9
20260507151104 58 288 0.0 0.0 0.00 0.00 0.00 78 1017.9
20260507151020 57 288 0.0 0.0 0.00 0.00 0.00 80 1017.9
20260507150604 57 288 0.0 0.0 0.00 0.00 0.00 80 1017.9
20260507150104 57 288 0.0 0.0 0.00 0.00 0.00 81 1017.8
20260507150022 56 288 0.0 0.0 0.00 0.00 0.00 84 1017.9
20260507145103 55 288 0.0 0.0 0.00 0.00 0.00 85 1017.9
20260507145021 54 286 0.0 0.0 0.00 0.00 0.00 86 1017.9
20260507144604 54 286 0.0 0.0 0.00 0.00 0.00 86 1017.9
20260507144104 54 286 0.0 0.0 0.00 0.00 0.00 87 1017.9
20260507144021 53 286 0.0 0.0 0.00 0.00 0.00 89 1017.9
20260507143604 53 286 0.0 0.0 0.00 0.00 0.00 89 1017.9
20260507143106 52 286 0.0 0.0 0.00 0.00 0.00 89 1017.8
20260507143023 51 286 0.0 0.0 0.00 0.00 0.00 90 1017.9
20260507142604 51 286 0.0 0.0 0.00 0.00 0.00 90 1017.9
20260507142103 51 286 0.0 0.0 0.00 0.00 0.00 90 1018.0
20260507142021 50 286 0.0 0.0 0.00 0.00 0.00 89 1017.9
20260507141604 50 286 0.0 0.0 0.00 0.00 0.00 89 1017.9
20260507141104 50 286 0.0 0.0 0.00 0.00 0.00 89 1017.8
20260507140605 49 286 0.0 0.0 0.00 0.00 0.00 89 1017.9
20260507140022 49 286 0.0 0.0 0.00 0.00 0.00 87 1017.9
20260507135605 49 286 0.0 0.0 0.00 0.00 0.00 87 1017.9
20260507135021 48 286 0.0 0.0 0.00 0.00 0.00 87 1017.7
20260507134605 48 286 0.0 0.0 0.00 0.00 0.00 87 1017.7
20260507134103 48 286 0.0 0.0 0.00 0.00 0.00 87 1017.6
20260507134021 48 286 0.0 0.0 0.00 0.00 0.00 87 1017.6
20260507133605 48 286 0.0 0.0 0.00 0.00 0.00 87 1017.6
20260507133104 48 286 0.0 0.0 0.00 0.00 0.00 87 1017.6
20260507133023 48 286 0.0 0.0 0.00 0.00 0.00 86 1017.6
20260507132605 48 286 0.0 0.0 0.00 0.00 0.00 86 1017.6
20260507132104 49 286 0.0 0.0 0.00 0.00 0.00 86 1017.6
20260507132020 49 286 0.0 0.0 0.00 0.00 0.00 86 1017.5
20260507131606 49 286 0.0 0.0 0.00 0.00 0.00 86 1017.5
20260507131104 49 286 0.0 0.0 0.00 0.00 0.00 86 1017.5
20260507131022 49 286 0.0 0.0 0.00 0.00 0.00 86 1017.5
20260507130104 49 286 0.0 0.0 0.00 0.00 0.00 86 1017.4
20260507130023 49 286 0.0 0.0 0.00 0.00 0.00 86 1017.5
20260507125605 49 286 0.0 0.0 0.00 0.00 0.00 86 1017.5
20260507125104 49 286 0.0 0.0 0.00 0.00 0.00 86 1017.4
20260507125020 49 286 0.0 0.0 0.00 0.00 0.00 86 1017.4
20260507124605 49 286 0.0 0.0 0.00 0.00 0.00 86 1017.4
20260507124104 49 286 0.0 0.0 0.00 0.00 0.00 86 1017.3
20260507123605 49 286 0.0 0.0 0.00 0.00 0.00 86 1017.3
20260507123104 49 286 0.0 0.0 0.00 0.00 0.00 86 1017.3
20260507122605 49 286 0.0 0.0 0.00 0.00 0.00 86 1017.3
20260507122104 49 286 0.0 0.0 0.00 0.00 0.00 86 1017.3
20260507122021 50 286 0.0 0.0 0.00 0.00 0.00 86 1017.3
20260507121104 50 286 0.0 0.0 0.00 0.00 0.00 86 1017.3
20260507121023 50 286 0.0 0.0 0.00 0.00 0.00 86 1017.3
20260507120604 50 286 0.0 0.0 0.00 0.00 0.00 86 1017.3
20260507120104 50 286 0.0 0.0 0.00 0.00 0.00 86 1017.3
20260507120022 50 286 0.0 0.0 0.00 0.00 0.00 86 1017.4
20260507115604 50 286 0.0 0.0 0.00 0.00 0.00 86 1017.4
20260507115104 50 286 0.0 0.0 0.00 0.00 0.00 86 1017.4
20260507115021 50 286 0.0 0.0 0.00 0.00 0.00 85 1017.5
20260507114605 50 286 0.0 0.0 0.00 0.00 0.00 85 1017.5
20260507114104 50 286 0.0 0.0 0.00 0.00 0.00 86 1017.5
20260507114021 50 286 0.0 0.0 0.00 0.00 0.00 85 1017.6
20260507113604 50 286 0.0 0.0 0.00 0.00 0.00 85 1017.6
20260507113104 50 286 0.0 0.0 0.00 0.00 0.00 85 1017.6
20260507113021 50 286 0.0 0.0 0.00 0.00 0.00 85 1017.6
20260507112603 50 286 0.0 0.0 0.00 0.00 0.00 85 1017.6
20260507112105 50 286 0.0 0.0 0.00 0.00 0.00 84 1017.7
20260507112021 50 286 0.0 0.0 0.00 0.00 0.00 84 1017.7
20260507111105 51 286 0.0 0.0 0.00 0.00 0.00 84 1017.7
20260507110604 51 286 0.0 0.0 0.00 0.00 0.00 83 1017.7
20260507110106 51 286 0.0 0.0 0.00 0.00 0.00 83 1017.6
20260507105603 51 286 0.0 0.0 0.00 0.00 0.00 83 1017.6
20260507105105 51 286 0.0 0.0 0.00 0.00 0.00 83 1017.5
20260507105021 51 286 0.0 0.0 0.00 0.00 0.00 83 1017.5
20260507104604 51 286 0.0 0.0 0.00 0.00 0.00 83 1017.5
20260507104103 51 286 0.0 0.0 0.00 0.00 0.00 82 1017.5
20260507104022 52 286 0.0 0.0 0.00 0.00 0.00 82 1017.5
20260507103604 52 286 0.0 0.0 0.00 0.00 0.00 82 1017.5
20260507103108 52 286 0.0 0.0 0.00 0.00 0.00 82 1017.4
20260507102604 52 286 0.0 0.0 0.00 0.00 0.00 81 1017.5
20260507102105 52 286 0.0 0.0 0.00 0.00 0.00 81 1017.4
20260507102021 52 286 0.0 0.0 0.00 0.00 0.00 81 1017.4
20260507101105 52 286 0.0 0.0 0.00 0.00 0.00 81 1017.5
20260507101021 53 286 0.0 0.0 0.00 0.00 0.00 81 1017.5
20260507100604 53 286 0.0 0.0 0.00 0.00 0.00 81 1017.5
20260507100105 53 286 0.0 0.0 0.00 0.00 0.00 81 1017.5
20260507100020 53 286 0.0 0.0 0.00 0.00 0.00 80 1017.5
20260507095606 53 286 0.0 0.0 0.00 0.00 0.00 80 1017.5
20260507095021 53 286 0.0 0.0 0.00 0.00 0.00 80 1017.6
20260507094603 53 286 0.0 0.0 0.00 0.00 0.00 80 1017.6
20260507094104 53 286 0.0 0.0 0.00 0.00 0.00 80 1017.5
20260507094023 53 286 0.0 0.0 0.00 0.00 0.00 79 1017.5
20260507093604 53 286 0.0 0.0 0.00 0.00 0.00 79 1017.5
20260507093021 54 286 0.0 0.0 0.00 0.00 0.00 79 1017.5
20260507092604 54 286 0.0 0.0 0.00 0.00 0.00 79 1017.5
20260507092105 54 286 0.0 0.0 0.00 0.00 0.00 78 1017.5
20260507092021 54 286 0.0 0.0 0.00 0.00 0.00 78 1017.5
20260507091604 54 286 0.0 0.0 0.00 0.00 0.00 78 1017.5
20260507091103 54 286 0.0 0.0 0.00 0.00 0.00 78 1017.5
20260507091021 54 286 0.0 0.0 0.00 0.00 0.00 78 1017.6
20260507090105 54 286 0.0 0.0 0.00 0.00 0.00 77 1017.6
20260507090020 55 286 0.0 0.0 0.00 0.00 0.00 77 1017.6
20260507085604 55 286 0.0 0.0 0.00 0.00 0.00 77 1017.6
20260507085021 55 286 0.0 0.0 0.00 0.00 0.00 77 1017.7
20260507084605 55 286 0.0 0.0 0.00 0.00 0.00 77 1017.7
20260507084104 55 286 0.0 0.0 0.00 0.00 0.00 77 1017.7
20260507084021 55 286 0.0 0.0 0.00 0.00 0.00 77 1017.6
20260507083605 55 286 0.0 0.0 0.00 0.00 0.00 77 1017.6
20260507083104 55 286 0.0 0.0 0.00 0.00 0.00 76 1017.6
20260507083020 55 286 0.0 0.0 0.00 0.00 0.00 76 1017.6
20260507082606 55 286 0.0 0.0 0.00 0.00 0.00 76 1017.6
20260507082104 55 286 0.0 0.0 0.00 0.00 0.00 75 1017.7
20260507082020 56 286 0.0 0.0 0.00 0.00 0.00 76 1017.6
20260507081605 56 286 0.0 0.0 0.00 0.00 0.00 76 1017.6
20260507081022 56 286 0.0 0.0 0.00 0.00 0.00 75 1017.7
20260507080604 56 286 0.0 0.0 0.00 0.00 0.00 75 1017.7
20260507080104 56 286 0.0 0.0 0.00 0.00 0.00 76 1017.7
20260507080020 56 286 0.0 0.0 0.00 0.00 0.00 76 1017.6
20260507075603 56 286 0.0 0.0 0.00 0.00 0.00 76 1017.6
20260507075021 57 288 0.0 0.0 0.00 0.00 0.00 74 1017.7
20260507074021 57 288 0.0 0.0 0.00 0.00 0.00 74 1017.8
20260507073603 57 288 0.0 0.0 0.00 0.00 0.00 74 1017.8
20260507073104 58 288 0.0 0.0 0.00 0.00 0.00 73 1017.8
20260507073021 58 288 0.0 0.0 0.00 0.00 0.00 72 1017.7
20260507072604 58 288 0.0 0.0 0.00 0.00 0.00 72 1017.7
20260507072020 58 288 0.0 0.0 0.00 0.00 0.00 71 1017.6
20260507071604 58 288 0.0 0.0 0.00 0.00 0.00 71 1017.6
20260507071104 58 288 0.0 0.0 0.00 0.00 0.00 71 1017.6
20260507070604 59 288 0.0 0.0 0.00 0.00 0.00 71 1017.6
20260507070104 59 288 0.0 0.0 0.00 0.00 0.00 70 1017.6
20260507070023 59 288 0.0 0.0 0.00 0.00 0.00 70 1017.6
20260507065604 59 288 0.0 0.0 0.00 0.00 0.00 70 1017.6
20260507065104 59 288 0.0 0.0 0.00 0.00 0.00 70 1017.6
20260507065024 59 288 0.0 0.0 0.00 0.00 0.00 70 1017.6
20260507064103 60 288 0.0 0.0 0.00 0.00 0.00 69 1017.6
20260507064022 60 288 0.0 0.0 0.00 0.00 0.00 68 1017.6
20260507063604 60 288 0.0 0.0 0.00 0.00 0.00 68 1017.6
20260507063103 60 288 0.0 0.0 0.00 0.00 0.00 68 1017.6
20260507063021 61 288 0.0 0.0 0.00 0.00 0.00 68 1017.6
20260507062604 61 288 0.0 0.0 0.00 0.00 0.00 68 1017.6
20260507062104 61 288 0.0 0.0 0.00 0.00 0.00 68 1017.5
20260507062020 61 289 0.0 0.0 0.00 0.00 0.00 67 1017.6
20260507061605 61 289 0.0 0.0 0.00 0.00 0.00 67 1017.6
20260507061104 61 336 0.0 0.0 0.00 0.00 0.00 66 1017.5
20260507061020 61 335 0.0 0.0 0.00 0.00 0.00 66 1017.4
20260507060604 61 335 0.0 0.0 0.00 0.00 0.00 66 1017.4
20260507060104 62 335 0.0 0.0 0.00 0.00 0.00 65 1017.5
20260507060021 62 334 0.0 0.0 0.00 0.00 0.00 65 1017.5
20260507055021 62 335 0.0 0.0 0.00 0.00 0.00 65 1017.5
20260507054604 62 335 0.0 0.0 0.00 0.00 0.00 65 1017.5
20260507054106 62 335 0.0 0.0 0.00 0.00 0.00 65 1017.5
20260507054022 63 335 0.0 0.0 0.00 0.00 0.00 65 1017.6
20260507053604 63 335 0.0 0.0 0.00 0.00 0.00 65 1017.6
20260507053105 63 335 0.0 0.0 0.00 0.00 0.00 64 1017.6
20260507053022 63 335 0.0 0.0 0.00 0.00 0.00 64 1017.5
20260507052105 64 335 0.0 0.0 0.00 0.00 0.00 64 1017.5
20260507052021 64 335 0.0 0.0 0.00 0.00 0.00 63 1017.6
20260507051606 64 335 0.0 0.0 0.00 0.00 0.00 63 1017.6
20260507051106 65 335 0.0 0.0 0.00 0.00 0.00 62 1017.6
20260507051022 65 335 0.0 0.0 0.00 0.00 0.00 62 1017.6
20260507050605 65 335 0.0 0.0 0.00 0.00 0.00 62 1017.6
20260507050104 65 335 0.0 0.0 0.00 0.00 0.00 62 1017.6
20260507045605 66 335 0.0 0.0 0.00 0.00 0.00 60 1017.5
20260507045104 66 334 0.0 0.0 0.00 0.00 0.00 59 1017.5
20260507045021 66 335 0.0 0.0 0.00 0.00 0.00 59 1017.4
20260507044606 66 335 0.0 0.0 0.00 0.00 0.00 59 1017.4
20260507043104 67 335 0.0 0.0 0.00 0.00 0.00 58 1017.4
20260507043021 67 335 0.0 0.0 0.00 0.00 0.00 57 1017.3
20260507042606 67 335 0.0 0.0 0.00 0.00 0.00 57 1017.3
20260507042021 68 335 0.0 0.0 0.00 0.00 0.00 56 1017.3